Location: Newark
(43.4545°N, 5.8521°W)
Time: 15:30:35
(UTC+00:00)

ISS - Pass Details

Date: 27 November 2019
Orbit: 411 x 421 km, 51.6° (Epoch: 10 December)

Event Time Altitude Azimuth Distance (km) Brightness Sun altitude
Rises 18:09:24 0° 261° (W) 2,350 1.9 -14.1°
Reaches altitude 10° 18:11:37 10° 271° (W) 1,492 0.3 -14.5°
Maximum altitude 18:14:43 34° 339° (NNW) 711 -2.6 -15.0°
Enters shadow 18:16:11 23° 27° (NNE) 946 -2.4 -15.3°
